Mount Vernon, IL

3:50 AM CDT on August 23, 2017 (GMT -0500)
Mount Vernon

Weather History for KMVN - November, 2011

Change the Weather History Date:

Sunday, November 13, 2011

  Actual Average Record
Temperature  
Mean Temperature 63 °F -  
Max Temperature 69 °F 53 °F 80 °F (1999)
Min Temperature 57 °F 34 °F 15 °F (2013)
Degree Days  
Heating Degree Days 2    
Growing Degree Days 13 (Base 50)    
Moisture  
Dew Point 54 °F    
Average Humidity 69    
Maximum Humidity 78    
Minimum Humidity 60    
Precipitation  
Precipitation 0.00 in - - ()
Sea Level Pressure  
Sea Level Pressure 29.68 in    
Wind  
Wind Speed 23 mph (SSW)    
Max Wind Speed 34 mph    
Max Gust Speed 47 mph    
Visibility 10 miles    
Events      
Averages and records for this station are not official NWS values.
T = Trace of Precipitation, MM = Missing Value Source: NWS Daily Summary

Daily Weather History Graph

Daily Weather History Graph

Search for Another Location

Airport or City:

Trip Planner

Search our weather history database for the weather conditions in past years. The results will help you decide how hot, cold, wet, or windy it might be!

Date:

Astronomy

Nov. 13, 2011 Rise Set
Actual Time 6:34 AM CST 4:44 PM CST
Civil Twilight 6:06 AM CST 5:12 PM CST
Nautical Twilight 5:34 AM CST 5:44 PM CST
Astronomical Twilight 5:03 AM CST 6:15 PM CST
Moon 6:54 PM CST (11/13) 9:05 AM CST (11/13)
Length of Visible Light 11h 06m
Length of Day
10h 10m
Waning Gibbous, 92% of the Moon is Illuminated
Nov 13
Waning Gibbous
Nov 18
Last Quarter
Nov 25
New
Dec 2
First Quarter
Dec 10
Full

Hourly Weather History & Observations

Time (CST) Temp. Dew Point Humidity Pressure Visibility Wind Dir Wind Speed Gust Speed Precip Events Conditions
12:35 AM - - N/A% 29.76 in 10.0 mi South 18.4 mph 24.2 mph N/A   Overcast
12:55 AM 57.2 °F 46.4 °F 67% 29.76 in 10.0 mi SSW 15.0 mph 18.4 mph N/A   Overcast
1:15 AM - - N/A% 29.76 in 10.0 mi SSW 17.3 mph 24.2 mph N/A   Overcast
1:35 AM - - N/A% 29.75 in 10.0 mi SSW 15.0 mph 19.6 mph N/A   Overcast
2:15 AM 59.0 °F 48.2 °F 67% 29.75 in 10.0 mi South 19.6 mph 24.2 mph N/A   Overcast
2:35 AM 59.0 °F 48.2 °F 67% 29.75 in 10.0 mi South 17.3 mph 20.7 mph N/A   Overcast
2:55 AM - - N/A% 29.74 in 10.0 mi South 16.1 mph - N/A   Overcast
3:15 AM - - N/A% 29.73 in 10.0 mi South 13.8 mph 21.9 mph N/A   Overcast
3:35 AM - - N/A% 29.73 in 10.0 mi South 17.3 mph - N/A   Overcast
3:55 AM 59.0 °F 48.2 °F 67% 29.73 in 10.0 mi South 19.6 mph 23.0 mph N/A   Overcast
4:15 AM - - N/A% 29.72 in 10.0 mi South 23.0 mph 31.1 mph N/A   Overcast
4:35 AM - - N/A% 29.72 in 10.0 mi SSW 26.5 mph 33.4 mph N/A   Overcast
4:55 AM 60.8 °F 51.8 °F 72% 29.72 in 10.0 mi SSW 25.3 mph 33.4 mph N/A   Overcast
5:35 AM - - N/A% 29.69 in 10.0 mi SSW 29.9 mph 36.8 mph N/A   Overcast
5:55 AM - - N/A% 29.68 in 10.0 mi SSW 29.9 mph 36.8 mph N/A   Overcast
6:15 AM - - N/A% 29.66 in 10.0 mi SSW 28.8 mph 38.0 mph N/A   Overcast
6:55 AM - - N/A% 29.65 in 10.0 mi SSW 28.8 mph 36.8 mph N/A   Overcast
7:15 AM - - N/A% 29.66 in 10.0 mi SSW 26.5 mph 39.1 mph N/A   Overcast
7:35 AM - - N/A% 29.68 in 10.0 mi SSW 27.6 mph 35.7 mph N/A   Overcast
7:55 AM - - N/A% 29.67 in 10.0 mi SSW 28.8 mph 39.1 mph N/A   Overcast
8:35 AM 62.6 °F 53.6 °F 72% 29.69 in 10.0 mi SSW 25.3 mph 35.7 mph N/A   Overcast
8:55 AM 62.6 °F 53.6 °F 72% 29.67 in 10.0 mi SSW 31.1 mph 40.3 mph N/A   Overcast
9:15 AM - - N/A% 29.67 in 10.0 mi SSW 34.5 mph 42.6 mph N/A   Overcast
9:35 AM - - N/A% 29.67 in 10.0 mi SSW 33.4 mph 44.9 mph N/A   Overcast
9:55 AM - - N/A% 29.68 in 10.0 mi SSW 29.9 mph 47.2 mph N/A   Overcast
10:35 AM - - N/A% 29.68 in 10.0 mi SSW 29.9 mph 42.6 mph N/A   Overcast
10:55 AM - - N/A% 29.68 in 10.0 mi SSW 31.1 mph 41.4 mph N/A   Overcast
11:15 AM - - N/A% 29.67 in 10.0 mi SSW 29.9 mph 41.4 mph N/A   Overcast
11:35 AM 68.0 °F 55.4 °F 64% 29.67 in 10.0 mi SSW 29.9 mph 39.1 mph N/A   Mostly Cloudy
11:55 AM 69.8 °F 55.4 °F 60% 29.66 in 10.0 mi SSW 32.2 mph 43.7 mph N/A   Scattered Clouds
12:15 PM - - N/A% 29.64 in 10.0 mi SW 34.5 mph 47.2 mph N/A   Scattered Clouds
12:35 PM - - N/A% 29.64 in 10.0 mi SSW 29.9 mph 43.7 mph N/A   Scattered Clouds
12:55 PM - - N/A% 29.63 in 10.0 mi SSW 31.1 mph 42.6 mph N/A   Scattered Clouds
1:15 PM - - N/A% 29.61 in 10.0 mi SSW 31.1 mph 42.6 mph N/A   Scattered Clouds
1:35 PM - - N/A% 29.62 in 10.0 mi SSW 33.4 mph 40.3 mph N/A   Scattered Clouds
1:55 PM - - N/A% 29.62 in 10.0 mi SSW 27.6 mph 39.1 mph N/A   Scattered Clouds
2:15 PM - - N/A% 29.62 in 10.0 mi SSW 34.5 mph 41.4 mph N/A   Scattered Clouds
2:35 PM - - N/A% 29.62 in 10.0 mi SSW 26.5 mph 36.8 mph N/A   Partly Cloudy
2:55 PM - - N/A% 29.62 in 10.0 mi SSW 29.9 mph 36.8 mph N/A   Partly Cloudy
3:15 PM - - N/A% 29.63 in 10.0 mi South 26.5 mph 36.8 mph N/A   Partly Cloudy
3:35 PM - - N/A% 29.63 in 10.0 mi SSW 25.3 mph 33.4 mph N/A   Clear
3:55 PM - - N/A% 29.64 in 10.0 mi SSW 24.2 mph 33.4 mph N/A   Clear
4:15 PM 68.0 °F 57.2 °F 68% 29.65 in 10.0 mi SSW 23.0 mph 27.6 mph N/A   Clear
4:35 PM 66.2 °F 55.4 °F 68% 29.66 in 10.0 mi SSW 17.3 mph 26.5 mph N/A   Scattered Clouds
4:55 PM 66.2 °F 55.4 °F 68% 29.66 in 10.0 mi SSW 20.7 mph 27.6 mph N/A   Partly Cloudy
5:15 PM - - N/A% 29.67 in 10.0 mi SSW 17.3 mph 26.5 mph N/A   Mostly Cloudy
5:35 PM 68.0 °F 57.2 °F 68% 29.68 in 10.0 mi SSW 19.6 mph 26.5 mph N/A   Mostly Cloudy
5:55 PM - - N/A% 29.69 in 10.0 mi SSW 18.4 mph 26.5 mph N/A   Partly Cloudy
6:15 PM - - N/A% 29.69 in 10.0 mi SSW 17.3 mph 27.6 mph N/A   Partly Cloudy
6:35 PM - - N/A% 29.69 in 10.0 mi SSW 18.4 mph 29.9 mph N/A   Partly Cloudy
6:55 PM 66.2 °F 57.2 °F 73% 29.70 in 10.0 mi SSW 19.6 mph 28.8 mph N/A   Clear
7:15 PM 66.2 °F 57.2 °F 73% 29.70 in 10.0 mi SSW 19.6 mph 25.3 mph N/A   Clear
7:35 PM - - N/A% 29.70 in 10.0 mi SSW 23.0 mph 33.4 mph N/A   Clear
7:55 PM 68.0 °F 57.2 °F 68% 29.72 in 10.0 mi SSW 24.2 mph 33.4 mph N/A   Clear
8:15 PM 68.0 °F 57.2 °F 68% 29.72 in 10.0 mi SSW 20.7 mph 29.9 mph N/A   Partly Cloudy
8:35 PM 66.2 °F 59.0 °F 78% 29.71 in 10.0 mi SSW 21.9 mph 25.3 mph N/A   Mostly Cloudy
9:15 PM 66.2 °F 57.2 °F 73% 29.72 in 10.0 mi SSW 18.4 mph 26.5 mph N/A   Partly Cloudy
9:35 PM - - N/A% 29.71 in 10.0 mi SSW 23.0 mph 31.1 mph N/A   Clear
9:55 PM - - N/A% 29.71 in 10.0 mi SSW 21.9 mph 32.2 mph N/A   Partly Cloudy
10:15 PM 66.2 °F 59.0 °F 78% 29.71 in 10.0 mi SSW 15.0 mph 27.6 mph N/A   Mostly Cloudy
10:35 PM 66.2 °F 59.0 °F 78% 29.71 in 10.0 mi SSW 18.4 mph 23.0 mph N/A   Overcast
10:55 PM - - N/A% 29.70 in 10.0 mi SSW 19.6 mph 26.5 mph N/A   Overcast
11:15 PM 66.2 °F 60.8 °F 83% 29.71 in 10.0 mi SSW 21.9 mph 28.8 mph N/A   Overcast
11:35 PM 68.0 °F 60.8 °F 78% 29.71 in 10.0 mi SSW 20.7 mph 28.8 mph N/A   Overcast
11:55 PM - - N/A% 29.71 in 10.0 mi SSW 18.4 mph 26.5 mph N/A   Overcast